OK1KZE-6 Weather Reports


time (UTC)temp
F
wind
direction
speed
knots
gust
knots
rain 1hr
in
rain 24hr
in
rain mn
in
humidity
%
barometer
mb
20260505041508 56 126 4.3 5.2 0.00 0.00 0.00 86 1011.1
20260505041008 57 101 3.5 4.3 0.00 0.00 0.00 82 1011.2
20260505040508 55 154 3.5 5.2 0.00 0.00 0.00 89 1011.0
20260505040009 55 172 4.3 5.2 0.00 0.00 0.00 87 1011.2
20260505035007 56 124 6.1 7.0 0.00 0.00 0.00 84 1011.2
20260505034506 56 133 6.1 7.8 0.00 0.00 0.00 84 1011.0
20260505034007 57 120 4.3 5.2 0.00 0.00 0.00 80 1011.0
20260505033508 57 111 5.2 7.0 0.00 0.00 0.00 81 1011.2
20260505032507 57 121 5.2 6.1 0.00 0.00 0.00 83 1011.2
20260505032007 57 105 5.2 5.2 0.00 0.00 0.00 84 1011.2
20260505031508 57 111 4.3 5.2 0.00 0.00 0.00 84 1011.4
20260505031008 57 108 3.5 3.5 0.00 0.00 0.00 80 1011.3
20260505030508 56 115 4.3 5.2 0.00 0.00 0.00 85 1011.5
20260505030008 57 118 4.3 4.3 0.00 0.00 0.00 84 1011.5
20260505025507 57 119 5.2 5.2 0.00 0.00 0.00 83 1011.5
20260505025007 57 117 5.2 7.0 0.00 0.00 0.00 81 1011.6
20260505024507 58 120 7.0 8.7 0.00 0.00 0.00 79 1011.5
20260505024008 58 113 7.8 8.7 0.00 0.00 0.00 79 1011.6
20260505023507 58 117 9.6 10.4 0.00 0.00 0.00 77 1011.5
20260505023008 59 98 9.6 10.4 0.00 0.00 0.00 72 1011.5
20260505022507 60 98 9.6 10.4 0.00 0.00 0.00 72 1011.6
20260505022007 60 100 10.4 11.3 0.00 0.00 0.00 71 1011.4
20260505021507 60 97 12.2 12.2 0.00 0.00 0.00 71 1011.5
20260505021007 60 89 10.4 11.3 0.00 0.00 0.00 71 1011.3
20260505020508 60 82 10.4 11.3 0.00 0.00 0.00 70 1011.4
20260505020007 60 80 10.4 10.4 0.00 0.00 0.00 71 1011.6
20260505015507 60 78 9.6 10.4 0.00 0.00 0.00 71 1011.4
20260505015008 60 83 9.6 9.6 0.00 0.00 0.00 72 1011.6
20260505014508 59 81 7.8 8.7 0.00 0.00 0.00 72 1011.7
20260505014007 59 86 7.0 7.8 0.00 0.00 0.00 73 1011.6
20260505013507 59 76 7.0 7.8 0.00 0.00 0.00 73 1011.7
20260505013007 60 71 8.7 10.4 0.00 0.00 0.00 73 1011.6
20260505012508 59 85 8.7 10.4 0.00 0.00 0.00 73 1011.6
20260505012006 60 75 7.0 7.8 0.00 0.00 0.00 73 1011.7
20260505011508 60 72 9.6 10.4 0.00 0.00 0.00 73 1012.0
20260505011008 60 75 10.4 11.3 0.00 0.00 0.00 72 1011.9
20260505010508 59 76 7.8 9.6 0.00 0.00 0.00 74 1012.0
20260505010007 60 70 7.0 8.7 0.00 0.00 0.00 72 1011.8
20260505005508 60 68 13.0 13.0 0.00 0.00 0.00 71 1011.9
20260505005009 60 62 12.2 13.0 0.00 0.00 0.00 72 1012.1
20260505004508 59 48 13.0 14.8 0.00 0.00 0.00 74 1012.1
20260505004006 60 75 13.0 14.8 0.00 0.00 0.00 73 1012.2
20260505003508 59 66 18.2 18.2 0.00 0.00 0.00 74 1012.1
20260505003007 59 59 13.9 16.5 0.00 0.00 0.00 75 1012.3
20260505002507 59 79 13.9 19.1 0.00 0.00 0.00 74 1012.1
20260505002007 59 75 14.8 16.5 0.00 0.00 0.00 75 1012.3
20260505001508 58 60 12.2 13.9 0.00 0.00 0.00 79 1012.3
20260505001009 59 77 13.0 13.9 0.00 0.00 0.00 75 1012.1
20260505000508 60 80 16.5 18.2 0.00 0.00 0.00 72 1012.5
20260505000008 60 88 19.1 20.0 0.00 0.00 0.00 71 1012.0
20260504235508 61 88 20.0 23.5 0.00 0.00 0.00 70 1012.1
20260504235007 60 86 20.0 22.6 0.00 0.00 0.00 72 1012.3
20260504234508 59 84 7.0 9.6 0.00 0.00 0.00 79 1012.4
20260504234007 58 64 8.7 10.4 0.00 0.00 0.00 81 1012.8
20260504233508 59 86 16.5 17.4 0.00 0.00 0.00 76 1012.7
20260504233008 61 93 22.6 26.9 0.00 0.00 0.00 70 1012.3
20260504232507 62 97 28.7 29.5 0.00 0.00 0.00 69 1012.2
20260504232007 61 103 26.1 26.9 0.00 0.00 0.00 67 1012.9
20260504231507 62 106 23.5 24.3 0.00 0.00 0.00 68 1013.1
20260504231007 61 111 23.5 26.1 0.00 0.00 0.00 69 1013.2
20260504230506 58 115 21.7 26.1 0.00 0.00 0.00 79 1013.3
20260504230007 59 114 13.0 20.0 0.00 0.00 0.00 74 1013.8
20260504225507 59 123 13.0 20.0 0.00 0.00 0.00 74 1013.9
20260504225007 60 114 16.5 17.4 0.00 0.00 0.00 71 1014.1
20260504224508 60 118 11.3 12.2 0.00 0.00 0.00 69 1014.1
20260504224006 61 134 13.9 14.8 0.00 0.00 0.00 65 1014.3
20260504223506 63 139 13.0 13.0 0.00 0.00 0.00 61 1014.5
20260504223007 63 158 7.0 7.8 0.00 0.00 0.00 60 1014.6
20260504222507 61 182 6.1 7.0 0.00 0.00 0.00 65 1014.8
20260504222007 61 232 7.0 7.8 0.00 0.00 0.00 64 1015.0
20260504221508 62 180 11.3 16.5 0.00 0.00 0.00 62 1015.1
20260504221007 61 199 6.1 9.6 0.00 0.00 0.00 64 1014.9
20260504220508 62 182 12.2 15.6 0.00 0.00 0.00 60 1014.9
20260504220008 61 191 8.7 14.8 0.00 0.00 0.00 62 1014.4
20260504215507 65 116 8.7 9.6 0.00 0.00 0.00 53 1014.1
20260504215008 66 98 17.4 18.2 0.00 0.00 0.00 50 1014.0
20260504214507 66 96 17.4 18.2 0.00 0.00 0.00 51 1013.7
20260504214007 66 91 17.4 18.2 0.00 0.00 0.00 49 1013.9
20260504213508 66 88 16.5 17.4 0.00 0.00 0.00 50 1014.0
20260504213008 66 89 17.4 17.4 0.00 0.00 0.00 50 1013.6
20260504212508 66 84 16.5 18.2 0.00 0.00 0.00 49 1013.9
20260504212007 66 76 13.9 18.2 0.00 0.00 0.00 49 1013.8
20260504211508 66 78 15.6 16.5 0.00 0.00 0.00 49 1013.9
20260504211007 66 76 14.8 15.6 0.00 0.00 0.00 49 1013.9
20260504210508 66 74 13.0 13.0 0.00 0.00 0.00 49 1013.8
20260504210008 66 66 10.4 13.0 0.00 0.00 0.00 50 1014.0
20260504205508 66 80 13.0 14.8 0.00 0.00 0.00 49 1014.0
20260504204508 66 86 13.0 14.8 0.00 0.00 0.00 49 1014.0
20260504204007 66 95 14.8 16.5 0.00 0.00 0.00 48 1013.9
20260504203508 66 95 14.8 15.6 0.00 0.00 0.00 50 1013.9
20260504203008 66 95 15.6 15.6 0.00 0.00 0.00 48 1014.1
20260504202508 66 92 15.6 16.5 0.00 0.00 0.00 48 1014.1
20260504202007 67 94 15.6 16.5 0.00 0.00 0.00 48 1014.0
20260504201508 67 94 16.5 18.2 0.00 0.00 0.00 48 1014.0
20260504201007 67 96 16.5 17.4 0.00 0.00 0.00 48 1014.0
20260504200508 67 96 16.5 16.5 0.00 0.00 0.00 49 1014.2
20260504200008 67 97 15.6 16.5 0.00 0.00 0.00 49 1014.1
20260504195508 67 98 16.5 17.4 0.00 0.00 0.00 48 1014.1
20260504195009 67 97 17.4 18.2 0.00 0.00 0.00 49 1014.2
20260504194508 67 100 16.5 17.4 0.00 0.00 0.00 49 1014.2
20260504194007 67 99 17.4 17.4 0.00 0.00 0.00 49 1014.2
20260504193508 67 99 18.2 18.2 0.00 0.00 0.00 50 1014.1
20260504193007 67 98 17.4 18.2 0.00 0.00 0.00 49 1014.1
20260504192507 67 99 18.2 18.2 0.00 0.00 0.00 49 1014.2
20260504192007 67 95 17.4 18.2 0.00 0.00 0.00 49 1014.2
20260504191508 67 95 17.4 18.2 0.00 0.00 0.00 49 1014.1
20260504191007 67 98 18.2 19.1 0.00 0.00 0.00 49 1014.1
20260504190507 67 97 18.2 18.2 0.00 0.00 0.00 49 1014.0
20260504190008 68 95 19.1 20.0 0.00 0.00 0.00 48 1014.0
20260504185507 68 92 18.2 18.2 0.00 0.00 0.00 47 1014.1
20260504185008 68 92 19.1 19.1 0.00 0.00 0.00 47 1014.1
20260504184507 68 94 18.2 19.1 0.00 0.00 0.00 47 1013.9
20260504184007 68 91 17.4 18.2 0.00 0.00 0.00 47 1013.9
20260504183508 68 89 17.4 18.2 0.00 0.00 0.00 47 1013.8
20260504183007 68 89 17.4 19.1 0.00 0.00 0.00 46 1013.9
20260504182507 69 87 17.4 19.1 0.00 0.00 0.00 46 1013.9
20260504182007 68 91 18.2 19.1 0.00 0.00 0.00 46 1013.8
20260504181009 68 87 16.5 16.5 0.00 0.00 0.00 48 1014.1
20260504180506 68 88 14.8 16.5 0.00 0.00 0.00 48 1013.9
20260504180008 68 89 18.2 18.2 0.00 0.00 0.00 47 1013.9
20260504175507 69 93 16.5 18.2 0.00 0.00 0.00 47 1014.0
20260504175008 69 87 16.5 17.4 0.00 0.00 0.00 46 1014.1
20260504174507 69 83 16.5 16.5 0.00 0.00 0.00 46 1014.1
20260504174008 69 84 14.8 15.6 0.00 0.00 0.00 46 1014.0
20260504173509 69 88 15.6 16.5 0.00 0.00 0.00 45 1014.2
20260504173008 69 87 15.6 16.5 0.00 0.00 0.00 45 1014.2
20260504172508 69 87 16.5 18.2 0.00 0.00 0.00 45 1014.0
20260504172008 69 87 17.4 18.2 0.00 0.00 0.00 45 1014.2
20260504171508 69 91 13.9 17.4 0.00 0.00 0.00 46 1014.3
20260504171007 69 83 18.2 19.1 0.00 0.00 0.00 45 1014.2
20260504170508 70 82 17.4 18.2 0.00 0.00 0.00 46 1014.3
20260504151007 71 84 12.2 13.9 0.00 0.00 0.00 42 1015.1
20260504150507 72 89 14.8 16.5 0.00 0.00 0.00 42 1014.9
20260504141007 72 101 10.4 13.0 0.00 0.00 0.00 42 1015.3
20260504140508 72 84 7.8 9.6 0.00 0.00 0.00 40 1015.6
20260504130508 70 93 13.9 14.8 0.00 0.00 0.00 42 1015.6
20260504110508 67 66 10.4 10.4 0.00 0.00 0.00 46 1016.8
20260504100509 66 63 12.2 12.2 0.00 0.00 0.00 47 1017.1
20260504082007 62 48 12.2 13.0 0.00 0.00 0.00 54 1016.7
20260504081507 62 46 8.7 10.4 0.00 0.00 0.00 54 1016.6
20260504081008 61 54 12.2 13.0 0.00 0.00 0.00 56 1016.6
20260504080508 61 33 7.0 7.8 0.00 0.00 0.00 56 1016.8
20260504050508 54 113 14.8 15.6 0.00 0.00 0.00 65 1015.3
20260504050008 53 117 15.6 16.5 0.00 0.00 0.00 66 1015.2
20260504045507 53 111 13.9 15.6 0.00 0.00 0.00 66 1015.1
20260504045008 53 107 13.0 14.8 0.00 0.00 0.00 67 1015.3
20260504044508 53 113 11.3 12.2 0.00 0.00 0.00 67 1015.1
20260504044008 53 116 11.3 12.2 0.00 0.00 0.00 66 1015.1
20260504043508 54 101 13.9 15.6 0.00 0.00 0.00 66 1015.0
20260504043008 54 104 5.2 7.0 0.00 0.00 0.00 64 1015.1
20260504042507 54 77 6.1 7.0 0.00 0.00 0.00 64 1014.8
20260504042007 54 74 5.2 6.1 0.00 0.00 0.00 64 1015.0